Weather Roundup
Issued by NWS Corpus Christi, TX

Home | Current Version | Previous Version | Text Only | Print | Product List | Glossary On
Versions: 1 2 3 4 5 6 7 8 9 10 11 12 13 14 15 16 17 18 19 20 21 22 23 24 25 26 27 28 29 30 31 32 33 34 35 36 37 38 39 40 41 42 43 44 45 46 47 48 49 50
460
ASUS44 KCRP 290810
HRRCRP

SOUTH TEXAS REGIONAL WEATHER ROUNDUP
NATIONAL WEATHER SERVICE CORPUS CHRISTI TX
300 AM CDT WED MAR 29 2017


TXZ229>244-290900-
...CORPUS CHRISTI AREA OBSERVATIONS...

CITY           SKY/WX    TMP DP  RH WIND       PRES   REMARKS
CORPUS CHRISTI CLOUDY    75  72  90 S23G35    29.64R
NAS CORPUS CHR CLOUDY    75  73  93 S26G38    29.63R
ROCKPORT       NOT AVBL
KINGSVILLE NAS CLOUDY    76  73  91 S21       29.62R
ALICE          CLOUDY    75  70  84 S16G26    29.60F
ORANGE GROVE   MOCLDY    76  71  85 S18G30    29.62F
FALFURRIAS     PTCLDY    76  70  83 SE17      29.60F
$$

...VICTORIA AREA OBSERVATIONS...

CITY           SKY/WX    TMP DP  RH WIND       PRES   REMARKS
VICTORIA       CLOUDY    75  68  78 S21G29    29.68S
BEEVILLE       CLOUDY    76  73  90 S23G32    29.62S
PLEASANTON     CLOUDY    75  68  78 NW7       29.73R
SAN ANTONIO    TSTM      60  57  89 NW14G22   29.71F FOG
$$

...LAREDO AREA OBSERVATIONS...

CITY           SKY/WX    TMP DP  RH WIND       PRES   REMARKS
LAREDO         CLOUDY    76  70  82 VRB5      29.67R
COTULLA        LGT RAIN  68  62  81 N16G24    29.71R
DEL RIO        CLEAR     56  53  90 W3        29.74S
MCALLEN        CLOUDY    77  71  82 SE16G28   29.62F
HEBBRONVILLE   CLEAR     72  67  84 S14G23    29.61F
$$

...OTHER TEXAS OBSERVATIONS...

CITY           SKY/WX    TMP DP  RH WIND       PRES   REMARKS
BROWNSVILLE    CLOUDY    77  73  87 SE24G30   29.66F
HOUSTON        MOCLDY    75  67  76 S18G29    29.72F
COL. STATION   CLOUDY    74  67  78 S14G23    29.74R
AUSTIN         TSTM      61  61 100 N6        29.73F FOG
WACO           CLOUDY    60  58  92 W12       29.78R THUNDER FOG
FORT WORTH     TSTM      61  59  93 W20G30    29.72R FOG
WICHITA FALLS  LGT RAIN  53  52  96 N10       29.74R
LUBBOCK        CLOUDY    51  48  89 E12       29.69R
EL PASO        MOCLDY    55  31  39 W17       29.86S
$$

...MARINE OBSERVATIONS...

STATION/POSITION TIME  SKY/WX   TEMP    WIND        PRES    VSBY  WAVE   SWELL
                                AIR SEA DIR/SP/G                  HT/PER HT/PER
                 (UTC)          (F)     (DEG/KT/KT) (MB)    (MI)  (FT/S) (FT/S)
PORT ARANSAS     0800            73 73  150/ 25/ 29 1003.3F
BUOY 90 E PORT A 0750            75 73  150/ 23/ 27 1005.6R        10/ 8
BUOY 45 SE BAFFI 0750            74     160/ 17/ 21 1004.1F         8/ 8
BUOY 200 E PT IS 0750            76 77  130/ 27/ 35 1006.5F         8/ 8
BUOY 15 E GALVES 0750            73 71  150/ 17/ 21 1006.5F         6/ 7
$$




USA.gov is the U.S. government's official web portal to all federal, state and local government web resources and services.